sat.trackr.live / text

‹ back to catalog

UNKNOWN

NORAD 81792

UNKNOWN UNKNOWN UNKNOWN

§ Identity

Operator
Country
Launch date
Launch site
Launch vehicle
Mass (kg)
RCS (m²)

External: N2YO · Heavens-Above

§ Orbital elements

Epoch: 2026-09-18T05:41:18.217824Z

Period
109.79 min
Inclination
65.7985°
Eccentricity
0.0881916
Mean motion
13.11625691 rev/d
Perigee alt
547.1 km
Apogee alt
1,886.7 km
Semi-major
7,595.0 km
B*
4.0336e-4
RAAN
187.1080°
Arg perigee
158.7594°
Mean anomaly
205.2583°
Rev number
11,668

§ Raw data

UNKNOWN1 81792U          26261.23701641  .00001015  00000+0  40336-3 0  99932 81792  65.7985 187.1080 0881916 158.7594 205.2583 13.11625691116688

JSON: /api/v1/satellites/81792 · /tle

For live sub-satellite position, see the globe view (requires WebGL).

§ Visibility from observer

Set your observer location to see the next 7 days of passes ≥ 10°. The values pass through the URL so the page stays shareable.

No JS? Fill the form by hand. The geolocation button needs JavaScript.